FW5316 Weather Reports


Display with metric or nautical units.
time (UTC)temp
F
wind
direction
speed
MPH
gust
MPH
rain 1hr
in
rain 24hr
in
rain mn
in
humidity
%
barometer
mb
20260902013017 77 291 7.0 10.0 0.00 0.00 0.00 67 1014.3
20260902012017 77 284 5.0 12.0 0.00 0.00 0.00 66 1014.4
20260902011016 78 285 4.0 10.0 0.00 0.00 0.00 66 1014.4
20260902010017 78 308 4.0 9.0 0.00 0.00 0.00 65 1014.5
20260902005017 79 282 5.0 10.0 0.00 0.00 0.00 64 1014.6
20260902004016 79 295 3.0 10.0 0.00 0.00 0.00 64 1014.5
20260902003016 79 276 4.0 10.0 0.00 0.00 0.00 64 1014.5
20260902002017 80 256 5.0 10.0 0.00 0.00 0.00 63 1014.5
20260902001017 80 283 6.0 11.0 0.00 0.00 0.00 63 1014.6
20260902000036 81 279 4.0 11.0 0.00 0.00 0.00 62 1014.5
20260901235016 81 276 4.0 11.0 0.00 0.00 0.00 62 1014.7
20260901234017 81 278 6.0 11.0 0.00 0.00 0.00 61 1014.7
20260901233016 82 294 6.0 13.0 0.00 0.00 0.00 60 1014.7
20260901232016 82 285 7.0 13.0 0.00 0.00 0.00 60 1014.8
20260901231016 83 282 7.0 12.0 0.00 0.00 0.00 59 1014.7
20260901230016 84 274 6.0 12.0 0.00 0.00 0.00 57 1014.8
20260901225016 84 288 6.0 14.0 0.00 0.00 0.00 55 1014.8
20260901224016 85 278 5.0 14.0 0.00 0.00 0.00 54 1014.9
20260901223036 85 283 5.0 13.0 0.00 0.00 0.00 55 1014.9
20260901222016 86 284 5.0 13.0 0.00 0.00 0.00 53 1015.0
20260901221056 87 275 5.0 13.0 0.00 0.00 0.00 51 1014.9
20260901220037 87 302 7.0 14.0 0.00 0.00 0.00 49 1015.1
20260901215016 88 275 6.0 13.0 0.00 0.00 0.00 49 1015.1
20260901214016 88 283 6.0 11.0 0.00 0.00 0.00 49 1015.2
20260901213037 89 296 7.0 15.0 0.00 0.00 0.00 49 1015.3
20260901212016 89 269 6.0 12.0 0.00 0.00 0.00 48 1015.3
20260901211017 89 281 6.0 17.0 0.00 0.00 0.00 48 1015.4
20260901210037 89 287 6.0 12.0 0.00 0.00 0.00 50 1015.4
20260901205036 88 273 6.0 14.0 0.00 0.00 0.00 49 1015.5
20260901204036 89 260 6.0 14.0 0.00 0.00 0.00 49 1015.5
20260901203018 90 275 6.0 15.0 0.00 0.00 0.00 47 1015.5
20260901202016 89 283 8.0 15.0 0.00 0.00 0.00 48 1015.6
20260901201016 90 266 7.0 13.0 0.00 0.00 0.00 49 1015.6
20260901200016 90 268 6.0 14.0 0.00 0.00 0.00 51 1015.6
20260901195056 90 274 7.0 13.0 0.00 0.00 0.00 51 1015.7
20260901194016 90 265 4.0 13.0 0.00 0.00 0.00 51 1015.7
20260901193016 90 265 6.0 13.0 0.00 0.00 0.00 52 1015.7
20260901192017 90 266 4.0 11.0 0.00 0.00 0.00 51 1015.7
20260901191016 91 267 4.0 9.0 0.00 0.00 0.00 50 1015.9
20260901190016 90 271 4.0 10.0 0.00 0.00 0.00 51 1015.9
20260901185016 90 260 4.0 10.0 0.00 0.00 0.00 51 1015.9
20260901184036 88 279 3.0 9.0 0.00 0.00 0.00 53 1015.9
20260901183018 87 194 6.0 13.0 0.00 0.00 0.00 56 1015.9
20260901182015 87 202 5.0 12.0 0.00 0.00 0.00 56 1016.0
20260901181016 86 255 3.0 7.0 0.00 0.00 0.00 55 1016.0
20260901180016 86 91 2.0 5.0 0.00 0.00 0.00 53 1016.0
20260901175016 86 197 2.0 7.0 0.00 0.00 0.00 54 1016.2
20260901174017 87 308 1.0 4.0 0.00 0.00 0.00 54 1016.3
20260901173016 87 307 2.0 6.0 0.00 0.00 0.00 54 1016.3
20260901172015 87 308 3.0 9.0 0.00 0.00 0.00 55 1016.2
20260901171017 86 292 1.0 6.0 0.00 0.00 0.00 57 1016.1
20260901170015 85 293 3.0 9.0 0.00 0.00 0.00 59 1016.2
20260901165015 85 342 2.0 7.0 0.00 0.00 0.00 59 1016.1
20260901164016 84 305 2.0 8.0 0.00 0.00 0.00 61 1016.0
20260901163015 82 312 2.0 6.0 0.00 0.00 0.00 63 1016.0
20260901162015 81 351 2.0 7.0 0.00 0.00 0.00 64 1015.9
20260901161016 80 311 3.0 8.0 0.00 0.00 0.00 67 1015.8
20260901160015 78 296 2.0 7.0 0.00 0.00 0.00 70 1015.8
20260901155035 77 284 1.0 6.0 0.00 0.00 0.00 70 1015.7
20260901154036 77 284 1.0 7.0 0.00 0.00 0.00 70 1015.6
20260901153015 78 266 2.0 6.0 0.00 0.00 0.00 70 1015.6
20260901152016 77 267 2.0 6.0 0.00 0.00 0.00 72 1015.5
20260901151016 76 209 0.0 3.0 0.00 0.00 0.00 74 1015.4
20260901150015 73 0.0 1.0 0.00 0.00 0.00 78 1015.4
20260901145016 71 0.0 0.0 0.00 0.00 0.00 81 1015.4
20260901144015 70 0.0 3.0 0.00 0.00 0.00 82 1015.3
20260901143015 69 66 1.0 3.0 0.00 0.00 0.00 82 1015.3
20260901142036 69 0.0 0.0 0.00 0.00 0.00 83 1015.2
20260901141015 68 0.0 0.0 0.00 0.00 0.00 84 1015.1
20260901140015 67 0.0 0.0 0.00 0.00 0.00 86 1015.1
20260901135016 67 0.0 0.0 0.00 0.00 0.00 86 1015.0
20260901134015 66 0.0 0.0 0.00 0.00 0.00 86 1014.9
20260901133015 66 0.0 0.0 0.00 0.00 0.00 85 1014.9
20260901132016 66 0.0 0.0 0.00 0.00 0.00 85 1014.8
20260901131015 66 0.0 0.0 0.00 0.00 0.00 85 1014.8
20260901130038 66 15 0.0 3.0 0.00 0.00 0.00 86 1014.8
20260901125015 66 0.0 0.0 0.00 0.00 0.00 85 1014.7
20260901124015 66 0.0 0.0 0.00 0.00 0.00 86 1014.7
20260901123015 66 0.0 0.0 0.00 0.00 0.00 85 1014.7
20260901122015 66 0.0 0.0 0.00 0.00 0.00 85 1014.7
20260901121015 66 0.0 0.0 0.00 0.00 0.00 85 1014.8
20260901120035 66 0.0 0.0 0.00 0.00 0.00 85 1014.8
20260901115015 66 0.0 0.0 0.00 0.00 0.00 84 1014.7
20260901114015 67 0.0 0.0 0.00 0.00 0.00 85 1014.6
20260901113035 67 0.0 0.0 0.00 0.00 0.00 85 1014.5
20260901112016 67 0.0 0.0 0.00 0.00 0.00 85 1014.5
20260901111015 67 0.0 0.0 0.00 0.00 0.00 85 1014.5
20260901110015 67 0.0 0.0 0.00 0.00 0.00 85 1014.5
20260901105015 67 0.0 0.0 0.00 0.00 0.00 84 1014.6
20260901104015 67 0.0 0.0 0.00 0.00 0.00 84 1014.7
20260901103015 67 0.0 0.0 0.00 0.00 0.00 84 1014.9
20260901102015 68 0.0 0.0 0.00 0.00 0.00 84 1014.9
20260901101015 68 0.0 0.0 0.00 0.00 0.00 84 1014.9
20260901100015 68 0.0 0.0 0.00 0.00 0.00 84 1015.0
20260901095015 68 0.0 0.0 0.00 0.00 0.00 84 1014.9
20260901094015 68 0.0 0.0 0.00 0.00 0.00 83 1015.0
20260901093015 68 0.0 0.0 0.00 0.00 0.00 83 1015.0
20260901092017 68 316 1.0 2.0 0.00 0.00 0.00 83 1015.0
20260901091017 69 315 1.0 3.0 0.00 0.00 0.00 83 1015.0
20260901090015 69 313 1.0 4.0 0.00 0.00 0.00 83 1015.0
20260901085057 69 303 2.0 4.0 0.00 0.00 0.00 83 1015.0
20260901084017 69 316 2.0 4.0 0.00 0.00 0.00 84 1015.0
20260901083017 69 314 1.0 3.0 0.00 0.00 0.00 84 1015.1
20260901082017 69 0.0 2.0 0.00 0.00 0.00 84 1015.2
20260901081017 69 0.0 0.0 0.00 0.00 0.00 83 1015.3
20260901080017 69 0.0 0.0 0.00 0.00 0.00 83 1015.1
20260901075016 69 0.0 2.0 0.00 0.00 0.00 83 1015.1
20260901074016 69 313 2.0 3.0 0.00 0.00 0.00 83 1015.0
20260901073016 69 311 0.0 2.0 0.00 0.00 0.00 82 1015.1
20260901072016 69 312 0.0 3.0 0.00 0.00 0.00 82 1015.1
20260901071038 70 312 1.0 3.0 0.00 0.00 0.00 82 1015.2
20260901070016 70 314 1.0 3.0 0.00 0.00 0.00 82 1015.2
20260901065016 70 309 1.0 4.0 0.00 0.00 0.00 82 1015.2
20260901064015 70 317 1.0 4.0 0.00 0.00 0.00 81 1015.0
20260901063015 70 0.0 0.0 0.00 0.00 0.00 80 1015.0
20260901062017 70 0.0 0.0 0.00 0.00 0.00 80 1015.1
20260901061016 70 316 1.0 4.0 0.00 0.00 0.00 80 1015.1
20260901060015 70 305 1.0 5.0 0.00 0.00 0.00 79 1015.0
20260901055017 70 308 0.0 4.0 0.00 0.00 0.00 79 1014.9
20260901054015 71 311 2.0 5.0 0.00 0.00 0.00 79 1015.1
20260901053017 71 309 3.0 6.0 0.00 0.00 0.00 79 1014.9
20260901052015 71 320 1.0 4.0 0.00 0.00 0.00 79 1014.7
20260901051015 71 321 2.0 4.0 0.00 0.00 0.00 79 1014.7
20260901050036 71 0.0 3.0 0.00 0.00 0.00 79 1014.6
20260901045015 71 313 2.0 4.0 0.00 0.00 0.00 78 1014.6
20260901044015 71 304 1.0 4.0 0.00 0.00 0.00 78 1014.6
20260901043015 72 311 1.0 4.0 0.00 0.00 0.00 78 1014.5
20260901042015 72 312 0.0 3.0 0.00 0.00 0.00 78 1014.5
20260901041015 72 311 1.0 4.0 0.00 0.00 0.00 78 1014.5
20260901040015 72 308 2.0 5.0 0.00 0.00 0.00 77 1014.4
20260901035035 72 286 2.0 6.0 0.00 0.00 0.00 77 1014.4
20260901034016 72 313 2.0 5.0 0.00 0.00 0.00 76 1014.2
20260901033035 73 285 1.0 3.0 0.00 0.00 0.00 76 1014.1
20260901032015 73 281 1.0 6.0 0.00 0.00 0.00 76 1014.0
20260901031015 73 288 3.0 7.0 0.00 0.00 0.00 75 1013.8
20260901030015 74 285 2.0 8.0 0.00 0.00 0.00 75 1013.8
20260901025015 74 293 3.0 7.0 0.00 0.00 0.00 74 1013.6
20260901024015 74 294 3.0 7.0 0.00 0.00 0.00 73 1013.4
20260901023035 75 274 1.0 9.0 0.00 0.00 0.00 72 1013.2
20260901022015 75 289 5.0 9.0 0.00 0.00 0.00 71 1013.2
20260901021015 76 278 4.0 8.0 0.00 0.00 0.00 70 1013.1
20260901020017 77 287 4.0 9.0 0.00 0.00 0.00 69 1013.1
20260901015017 77 272 4.0 9.0 0.00 0.00 0.00 68 1013.1
20260901014017 78 272 3.0 8.0 0.00 0.00 0.00 68 1013.1